Flag for Argentina Weather past 2 weeks in Resistencia, Chaco, Argentina

Now
77 °F

Clear.


Feels Like: 78 °F
Forecast: 74 / 86 °F
Wind: 3 mph from Southeast

Location: Formosa Aerodrome

Current Time: Mar 1, 2015 at 12:15:55 AM

Latest Report: Mar 1, 2015 at 12:00 AM


Visibility: 10 mi

Pressure: 29.89 "Hg

Humidity: 94%

Dew point: 75 °F

Location of ResistenciaLocation

Historic Weather in Resistencia — Graph

°F

Resistencia temperature yesterday

Maximum temperature yesterday: 90 °F (at 3:00 PM)
Minimum temperature yesterday: 73 °F (at 7:00 AM)
Average temperature yesterday: 82 °F

Past Weeks' High & Low Weather Summary

 TemperatureHumidityPressure
High97 °F (Feb 25, 3:00 PM)100% (Feb 14, 2:00 AM)30.01 "Hg (Feb 14, 2:00 AM)
Low68 °F (Feb 19, 2:00 AM)46% (Feb 18, 5:00 PM)29.56 "Hg (Feb 18, 6:00 PM)
Average81 °F82%29.85 "Hg
* Reported Feb 13 11:00 PM — Feb 28 11:00 PM, Resistencia, Weather by CustomWeather, © 2015

Note: Actual official high and low records may vary slightly from our data, if they occured in-between our weather recording intervals... More about our weather records

Advertising

Resistencia weather history for previous 24 hours

 ConditionsComfort  
Time TempWeatherWind HumidityBarometerVisibility
11:00 PM
Sat, Feb 28
79 °FClear.5 mph89%29.89 "Hg10 mi
10:00 PM79 °FClear.5 mph89%29.89 "Hg10 mi
9:00 PM81 °FPassing clouds.6 mph89%29.86 "HgN/A
8:00 PM82 °FPassing clouds.5 mph84%29.86 "HgN/A
7:00 PM84 °FPassing clouds.3 mph79%29.86 "HgN/A
6:00 PM86 °FPassing clouds.7 mph70%29.83 "HgN/A
5:00 PM86 °FScattered clouds.10 mph66%29.83 "HgN/A
4:00 PM90 °FScattered clouds.7 mph67%29.86 "HgN/A
3:00 PM90 °FScattered clouds.7 mph67%29.89 "HgN/A
2:00 PM88 °FScattered clouds.6 mph66%29.92 "HgN/A
1:00 PM84 °FLight rain. Scattered clouds.8 mph79%29.95 "HgN/A
12:00 PM84 °FRain. Scattered clouds.7 mph79%29.95 "HgN/A
11:00 AM82 °FScattered clouds.7 mph84%29.95 "HgN/A
10:00 AM79 °FScattered clouds.7 mph89%29.95 "HgN/A
9:00 AM77 °FRain. Scattered clouds.6 mph94%29.95 "HgN/A
8:00 AM75 °FRain. Scattered clouds.5 mph94%29.92 "HgN/A
7:00 AM73 °FRain. Scattered clouds.7 mph100%29.92 "HgN/A
Weather by CustomWeather, © 2015

See weather overviewHow to use our weather pages